Location: Newark
(54.6833°N, 25.2833°E)
Time: 13:54:04
(UTC+00:00)

Altair - Pass Details

Date: 17 November 2019
Orbit: 1502 x 1682 km, 47.2° (Epoch: 09 December)

Event Time Altitude Azimuth Distance (km) Brightness Sun altitude
Rises 04:54:41 0° 261° (W) 4,636 - -8.3°
Exits shadow 04:55:33 - 260° (W) 4,360 9.4 -8.2°
Reaches altitude 10° 04:57:45 10° 257° (WSW) 3,659 9.0 -7.9°
Maximum altitude 05:06:36 55° 184° (S) 1,783 8.0 -6.7°
Drops below altitude 10° 05:15:42 10° 110° (ESE) 3,750 11.4 -5.5°
Sets 05:18:53 0° 106° (ESE) 4,758 12.4 -5.1°
